Location: Allie Creek
(37.5926°N, 89.8526°W)
Time: 11:48:49
(UTC+00:00)

NOSS 0 Rocket - Pass Details

Date: 26 September 2023
Orbit: 934 x 955 km, 70.0° (Epoch: 09 December)

Event Time Altitude Azimuth Distance (km) Brightness Sun altitude
Rises 01:54:31 0° 200° (SSW) 3,580 7.0 -24.7°
Reaches altitude 10° 01:57:01 10° 200° (SSW) 2,642 6.3 -25.2°
Maximum altitude 02:03:10 86° 113° (ESE) 949 3.8 -26.3°
Drops below altitude 10° 02:09:23 10° 25° (NNE) 2,672 6.3 -27.5°
Sets 02:11:55 0° 25° (NNE) 3,624 7.0 -28.0°
